    Orbital elements:
    2014 PR62                                                Earth MOID = 0.1332 AU
    Epoch 2017 Feb. 16.0 TT = JDT 2457800.5                 MPC
    M 286.10816              (2000.0)            P               Q
    n   0.31186083     Peri.  358.07478     +0.75786667     +0.64605922
    a   2.1535857      Node   321.18221     -0.59662150     +0.62999962
    e   0.4680570      Incl.    8.32921     -0.26397140     +0.43093847
    P   3.16           H   20.6           G   0.15           U   0
    Residuals in seconds of arc
    140814 Y00  0.2+  0.0     140817 I89  0.1-  0.1+    140904 H45  0.1+  0.4-
    140815 Y00  1.0-  0.2-    140817 I89  0.1-  0.2-    140904 H45  0.1-  0.3-
    140815 Y00  1.0-  0.3-    140817 J95  0.2+  0.0     140905 H21  0.1-  0.1-
    140815 Y00  1.2-  0.3-    140817 J95  0.2+  0.1+    140905 H21  0.3-  0.2-
    140815 Y00  0.2-  0.2-    140817 J95  0.0   0.1+    140905 H21  0.4+  0.4-
    140815 Y00  0.2+  0.0     140820 F51  0.2-  0.0     140914 H21  0.1-  0.1+
    140815 821  0.3-  0.3-    140820 F51  0.0   0.0     140914 H21  0.1+  0.0
    140815 821  0.4-  0.0     140820 F51  0.1-  0.2+    140914 H21  0.2-  0.0
    140815 821  0.5-  0.2-    140822 H45  0.0   0.2-    140914 H21  0.1-  0.1+
    140815 291  0.0   0.0     140822 H45  0.0   0.1-    140914 H21  0.2-  0.1+
    140815 291  0.1-  0.1+    140822 H45  0.2-  0.1-    140914 157  0.0   0.3-
    140815 291  0.1-  0.1+    140822 H45  0.0   0.1+    140914 157  0.3+  0.0
    140815 W86  0.0   0.3-    140822 H45  0.2-  0.1-    140914 157  0.2+  0.2+
    140815 W86  0.0   0.2-    140822 H45  0.1-  0.4-    140914 157  0.1+  0.3-
    140815 W86  0.1-  0.3-    140822 H45  0.0   0.4-    140915 703  0.3-  0.2+
    140815 W86  0.1-  0.0     140822 H45  0.3-  0.2-    140915 703  0.4-  0.1-
    140815 W86  0.0   0.0     140824 G45  0.2+  0.2+    140915 703  0.2-  0.1-
    140815 W86  0.1+  0.1-    140824 G45  0.4+  0.1+    140915 703  0.5+  0.1+
    140815 W86  0.0   0.2-    140824 G45  0.2+  0.2+    140918 I15  0.4+  0.0
    140815 W86  0.1-  0.3-    140824 G45  0.1-  0.0     140918 I15  0.0   0.1+
    140815 W86  0.0   0.1-    140824 G45  0.1-  0.2+    140918 I15  0.1+  0.2-
    140815 E23  0.1+  0.0     140824 G45  0.1-  0.1+    140920 H45  0.1+  0.4-
    140815 E23  0.1+  0.1+    140824 H45  0.0   0.1+    140920 H45  0.1+  0.3-
    140815 E23  0.1+  0.1+    140824 H45  0.1-  0.1-    140920 H45  0.0   0.3-
    140815 E23  0.1+  0.3-    140824 H45  0.2-  0.0     140920 H45  0.1-  0.0
    140815 E23  0.2-  0.1-    140824 H45  0.2-  0.1-    140920 H45  0.1-  0.2-
    140815 474  0.1+  0.1+    140824 H45  0.2-  0.1-    140920 H45  0.2+  0.5-
    140815 474  0.0   0.0     140824 H45  0.1-  0.2+    140920 H45  0.2-  0.2-
    140815 474  0.0   0.0     140824 H45  0.0   0.1-    140920 H45  0.4+  0.1+
    140815 474  0.1+  0.0     140824 H45  0.1-  0.1-    140921 I42  0.4-  0.1+
    140815 474  0.2+  0.1-    140824 C77  0.1-  0.6+    140921 I42  0.3+  0.1-
    140815 595  0.3+  0.3-    140824 C77  0.1+  0.0     140921 H45  0.5+  0.5-
    140815 595  0.3+  0.5-    140824 C77  0.1-  0.3-    140921 H45  0.3-  0.3-
    140815 595  0.4+  0.2-    140824 C77  0.2+  0.0     140921 H45  0.1+  0.2-
    140815 958  0.7+  1.2+    140826 Y00  0.1+  0.1-    140921 H45  0.2-  1.0+
    140815 118 (1.0+  2.5+)   140826 Y00  0.4-  0.0     140921 H45  0.4-  0.3-
    140815 118 (1.2+  2.6+)   140826 Y00  0.5-  0.3-    140921 H45  0.1-  0.2-
    140815 118 (1.1+  2.5+)   140827 A48  0.2-  0.1+    140921 H45  0.1-  0.4-
    140815 958  0.4+  0.8+    140827 A48  0.2-  0.3+    140921 H45  0.5+  0.1-
    140815 958  0.5+  0.8+    140827 A48  0.2-  0.2-    140923 H45  0.1+  0.2+
    140815 844  0.6+  0.1-    140827 A48  0.0   0.5+    140923 H45  0.4+  0.0
    140816 844  0.2-  0.0     140827 560  0.1-  0.1-    140923 H45  0.2+  0.6-
    140816 844  0.6+  0.4-    140827 560  0.0   0.1+    140923 H45  0.1-  0.4-
    140816 844  0.2-  0.1+    140827 560  0.2-  0.1-    140923 H45  0.6+  0.1-
    140816 844  0.7-  0.3-    140827 A53  1.0+  0.4+    140923 H45  0.1+  0.4-
    140816 844  0.1+  0.2-    140827 A53  0.3+  0.1+    140923 560  0.3-  0.2-
    140816 Y00  0.1-  0.1-    140827 A53  0.4-  0.5-    140923 560  0.2-  0.3+
    140816 Y00  0.1+  0.0     140827 C47  0.1-  0.2-    140923 560  0.1+  0.1-
    140816 X38  0.5+  0.6+    140827 C47  0.1-  0.1-    140923 A53  0.4+  0.5+
    140816 Y00  0.1-  0.2+    140827 A53  0.6-  0.2+    140923 A53  0.6-  0.5+
    140816 X38  0.0   0.6+    140827 C47  0.2-  0.1-    140923 A53  0.1-  0.6+
    140816 807  0.2+  0.0     140827 C47  0.3-  0.0     140923 A24  0.4-  0.6+
    140816 807  0.2+  0.1+    140828 L04  0.1+  0.0     140923 A24  1.1+  0.3+
    140816 807  0.1+  0.1-    140828 L04  0.0   0.0     140923 A24  0.1-  0.3+
    140816 X38  0.0   0.5+    140828 L04  0.2+  0.0     140923 A24  0.5+  0.2+
    140816 807  0.2+  0.1-    140828 203  0.0   0.0     140923 A24  0.0   0.2+
    140816 807  0.0   0.1-    140828 203  0.3+  0.2+    140923 A24  0.2+  0.3+
    140816 807  0.1+  0.1-    140829 H45  0.4+  0.1-    140923 A24  0.2-  0.6+
    140816 807  0.1+  0.0     140829 H45  0.0   0.1-    140930 703  1.1-  0.3-
    140816 807  0.1+  0.1-    140829 H45  0.0   0.0     140930 703  0.4-  0.1-
    140816 807  0.1+  0.0     140829 H45  0.1-  0.1+    140930 703 (0.1+  1.9+)
    140816 807  0.0   0.0     140829 H45  0.1+  0.1-    140930 G96  0.2+  0.1+
    140816 807  0.0   0.0     140829 H45  0.1-  0.2-    140930 G96  0.2+  0.0
    140816 W88  0.2-  0.1+    140829 H45  0.2-  0.2-    140930 G96  0.2+  0.1-
    140816 W88  0.0   0.1+    140829 H45  0.0   0.1-    140930 G96  0.1+  0.0
    140816 W88  0.3-  0.0     140829 L22 (2.5-  1.4+)   141002 204  0.1-  0.1-
    140816 474  0.0   0.1-    140829 L22  0.1+  0.5+    141002 204  0.0   0.2-
    140816 474  0.1+  0.1+    140829 L22  0.8+  1.2+    141002 204  0.0   0.1-
    140816 474  0.1+  0.0     140829 L22  0.5+  1.1+    141003 448  0.1+  0.1-
    140816 474  0.1+  0.1-    140830 H21  0.2+  0.2-    141003 448  0.1-  0.1-
    140816 474  0.1+  0.0     140830 H21  0.0   0.2-    141003 448  0.2-  0.2+
    140816 I93  0.1-  0.1-    140830 H21  0.0   0.1-    141004 560  1.3-  0.0
    140816 I93  0.0   0.2-    140830 H21  0.1+  0.1-    141004 560  1.1-  0.4+
    140816 I93  0.1-  0.0     140901 703  0.5+  0.3+    141004 560  0.4+  1.2+
    140816 I93  0.0   0.1-    140901 703  0.0   0.3-    141012 H21  0.2-  0.2-
    140816 104  0.2+  0.1-    140901 703  1.0+  0.6+    141012 H21  0.3-  0.3-
    140816 104  0.2+  0.0     140901 703  0.2-  0.3+    141012 H21  0.2+  0.3-
    140816 104  0.2+  0.1-    140901 H45  0.4+  0.1-    141025 H21  0.2-  0.1-
    140817 I39  0.9-  0.9+    140901 H45  0.2+  0.3-    141025 H21  0.0   0.0
    140817 I39  0.6-  0.9-    140901 H45  0.2+  0.4-    141025 H21  0.3-  0.2+
    140817 I39  0.4-  1.2+    140901 H45  0.1+  0.1-    141025 G45  0.1-  0.6-
    140817 I47  0.3+  0.1+    140901 H45  0.2+  0.1-    141025 G45  0.3-  0.0
    140817 I47  0.2+  0.0     140901 H45  0.2-  0.3-    141025 G45  0.5-  0.5+
    140817 I47  0.2+  0.2-    140901 H45  0.1+  0.0     141025 G45  0.0   0.4+
    140817 I47  0.1+  0.1-    140901 H45  0.3-  0.0     141025 G45  0.4+  0.2-
    140817 I47  0.1+  0.2-    140901 204  0.2+  0.3-    141026 G45  1.0-  0.3+
    140817 807  0.1-  0.3-    140901 204  0.2+  0.1-    141026 G45  0.4+  0.5-
    140817 807  0.0   0.0     140901 204  0.1-  0.0     141026 G45  0.1+  0.1+
    140817 807  0.2-  0.0     140901 160  0.1-  0.3+    141026 G45  0.2-  0.4-
    140817 807  0.1-  0.2+    140901 204  0.3-  0.2-    141026 G45  0.1-  0.5+
    140817 W86  0.1+  0.2-    140901 160  0.1-  0.3+    141026 G45  0.2+  0.4+
    140817 W86  0.1+  0.1-    140901 160  0.2-  0.1-    141026 G45  0.4+  0.2+
    140817 W86  0.2+  0.0     140902 I15  0.0   0.1-    141026 G45  0.4+  0.3+
    140817 W86  0.2+  0.1+    140902 I15  0.1-  0.1-    141026 G45  0.1+  0.5+
    140817 W86  0.0   0.2-    140902 I15  0.4+  0.0     141026 G45  0.5+  0.2-
    140817 W86  0.2-  0.1-    140902 160  0.4-  0.3+    141026 G45  0.8+  0.5+
    140817 W86  0.0   0.0     140902 160  0.0   0.4+    141121 H21  0.3-  0.2-
    140817 W86  0.0   0.0     140902 160  0.1+  0.2-    141121 H21  0.2+  0.2-
    140817 W86  0.0   0.1+    140904 H21  0.1-  0.4-    141121 H21  0.0   0.1-
    140817 W86  0.1+  0.0     140904 H21  0.1-  0.0     170421 807  0.4+  0.1+
    140817 157  0.0   0.1+    140904 H21  0.1+  0.1-    170421 807  0.1-  0.1+
    140817 157  0.0   0.2-    140904 H21  0.1-  0.2-    170421 807  0.1+  0.0
    140817 157  0.1-  0.1+    140904 H45  0.4+  0.4-    170501 807  0.1+  0.3-
    140817 157  0.1+  0.0     140904 H45  0.0   0.3-    170501 807  0.1-  0.1+
    140817 157  0.1+  0.2+    140904 H45  0.1-  0.3-    170501 807  0.4-  0.1+
    140817 I89  0.1+  0.1+    140904 H45  0.0   0.2-
    
    Ephemeris:
    2014 PR62                a,e,i = 2.15, 0.47, 8                   q = 1.1456
    Date    TT    R. A. (2000) Decl.     Delta      r     Elong.  Phase     V
    2017 04 01    13 50 51.1 -25 50 06   1.1606  2.1000   152.9    12.5    23.3
    ...
    2017 04 16    13 31 35.9 -25 53 56   1.0304  2.0143   164.1     7.8    22.7
    ...
    2017 04 24    13 19 23.5 -25 27 36   0.9830  1.9674   163.2     8.5    22.6
    ...
    2017 04 30    13 10 08.4 -24 55 24   0.9578  1.9318   158.9    10.8    22.6
    2017 05 01    13 08 37.9 -24 49 08   0.9544  1.9258   158.0    11.3    22.6
    2017 05 02    13 07 08.3 -24 42 38   0.9512  1.9199   157.0    11.8    22.6
    ...
    2017 05 08    12 58 37.6 -23 59 37   0.9369  1.8838   150.9    15.1    22.7
    ...
    2017 05 16    12 48 58.0 -22 55 25   0.9291  1.8352   142.1    19.8    22.8
    ...
    2017 05 31    12 38 11.3 -20 57 56   0.9412  1.7428   126.1    28.0    22.9
    
                           (Last issue was M.P.E.C. 2017-H88)
    
    A. U. Tomatic                (C) Copyright 2017 MPC           M.P.E.C. 2017-J01
    
